Flag Weather past 2 weeks in Hayward, California, U.S.A.

Now
43 °F

Fog.


Feels Like: 43 °F
Forecast: 46 / 62 °F
Wind: No wind

Location: Hayward Air Terminal

Current Time: Nov 28, 2014 at 4:30:23 AM

Latest Report: Nov 28, 2014 at 3:54 AM


Visibility: 4 mi

Pressure: 30.05 "Hg

Humidity: 100%

Dew point: 43 °F

Location of HaywardLocation

Historic Weather in Hayward — Graph

°F

Hayward temperature yesterday

Maximum temperature yesterday: 61 °F (at 10:54 AM)
Minimum temperature yesterday: 44 °F (at 5:54 AM)
Average temperature yesterday: 52 °F

Past Weeks' High & Low Weather Summary

 TemperatureHumidityPressure
High68 °F (Nov 17, 12:54 PM)100% (Nov 13, 2:03 AM)30.49 "Hg (Nov 13, 2:03 AM)
Low43 °F (Nov 25, 6:54 AM)12% (Nov 16, 1:54 PM)29.95 "Hg (Nov 13, 4:54 AM)
Average56 °F73%30.19 "Hg
* Reported Nov 13 2:03 AM — Nov 28 2:54 AM, Hayward, Weather by CustomWeather, © 2014

Note: Actual official high and low records may vary slightly from our data, if they occured in-between our weather recording intervals... More about our weather records

Advertising

Hayward weather history for previous 24 hours

 ConditionsComfort  
Time TempWeatherWind HumidityBarometerVisibility
2:54 AM
Nov 28
46 °FFog.5 mph93%30.07 "Hg6 mi
1:54 AM46 °FFog.No wind93%30.08 "Hg6 mi
12:54 AM48 °FClear.5 mph86%30.08 "Hg7 mi
11:54 PM
Nov 27
49 °FClear.No wind86%30.10 "Hg8 mi
10:54 PM45 °FClear.No wind100%30.10 "Hg7 mi
9:54 PM46 °FClear.No wind100%30.09 "Hg8 mi
8:54 PM49 °FClear.3 mph97%30.09 "Hg9 mi
7:54 PM50 °FClear.6 mph96%30.09 "Hg9 mi
6:54 PM52 °FClear.No wind86%30.08 "Hg8 mi
5:54 PM53 °FClear.No wind80%30.08 "Hg10 mi
4:54 PM57 °FClear.No wind67%30.09 "Hg9 mi
3:54 PM59 °FSunny.No wind67%30.09 "Hg8 mi
2:54 PM59 °FSunny.5 mph69%30.10 "Hg6 mi
1:54 PM59 °FSunny.6 mph78%30.11 "Hg5 mi
12:54 PM59 °FSunny.3 mph81%30.13 "Hg6 mi
11:54 AM56 °FFog.3 mph87%30.17 "Hg6 mi
10:54 AM61 °FSunny.No wind65%30.19 "Hg7 mi
9:54 AM57 °FSunny.3 mph78%30.21 "Hg6 mi
8:54 AM54 °FSunny.No wind77%30.22 "Hg7 mi
7:54 AM49 °FFog.3 mph86%30.21 "Hg5 mi
6:54 AM49 °FClear.5 mph84%30.20 "Hg7 mi
5:54 AM44 °FClear.3 mph100%30.19 "Hg7 mi
4:54 AM46 °FFog.No wind96%30.19 "Hg6 mi
Weather by CustomWeather, © 2014

See weather overviewHow to use our weather pages